Simultaneous Nadir Overpasses (SNOs) Predictions

Prediction of SNOs between AQUA and NPP Satellite Orbit:

Table of predicted SNOs for the next 14.0 days since TLE Epoch: 4/27/2024
Index Date (AQUA) Time (AQUA) Lat,Lon (AQUA) SZA (AQUA ) Date (NPP) Time (NPP) Lat,Lon (NPP) SZA (NPP ) Distance(km) Time Diff (sec)
1 04/29/2024 06:01:47 -81.21,-168.35 106.41 04/29/2024 06:00:38 -81.21,-168.27 106.38 1.45 69
2 04/29/2024 06:51:09 81.21, -0.69 73.59 04/29/2024 06:51:22 81.22, -0.72 73.58 0.69 13
3 05/01/2024 18:55:17 -81.21, -1.77 107.18 05/01/2024 18:54:32 -81.21, -1.76 107.15 0.33 45
4 05/01/2024 19:44:38 81.23, 166.25 72.77 05/01/2024 19:45:15 81.22, 166.14 72.76 1.78 37
5 05/04/2024 07:48:44 -81.21, 164.97 107.93 05/04/2024 07:48:25 -81.22, 165.00 107.92 0.77 19
6 05/04/2024 08:38:05 81.23, -27.04 72.02 05/04/2024 08:39:08 81.23, -27.12 71.99 1.47 63
7 05/06/2024 19:52:46 81.21, 163.98 71.37 05/06/2024 19:51:33 81.21, 164.15 71.39 2.96 73
8 05/06/2024 20:42:08 -81.22, -28.13 108.68 05/06/2024 20:42:17 -81.23, -27.98 108.71 2.57 9
9 05/09/2024 08:46:07 81.23, -28.96 70.63 05/09/2024 08:45:25 81.22, -28.99 70.66 0.74 42



Historial Predications of SNOs between AQUA and NPP
